Regional Weather Roundup
Issued by NWS

Home | Current Version | Previous Version | Graphics & Text | Print | Product List | Glossary On
Versions: 1 2 3 4 5 6 7 8 9 10 11 12 13 14 15 16 17 18 19 20 21 22 23 24 25 26 27 28 29 30 31 32 33 34 35 36 37 38 39 40 41 42 43 44 45 46 47 48 49 50
000
ASUS45 KPSR 070800
RWRAZ

ARIZONA REGIONAL HOURLY WEATHER ROUNDUP
NATIONAL WEATHER SERVICE PHOENIX AZ
100 AM MST THU MAY 07 2015

NOTE: FAIR INDICATES FEW OR NO CLOUDS BELOW 12,000 FEET WITH NO
SIGNIFICANT WEATHER AND/OR OBSTRUCTIONS TO VISIBILITY.

AZZ001>003-036-070900-
NORTHWEST ARIZONA

CITY           SKY/WX    TMP DP  RH WIND       PRES   REMARKS
KINGMAN        CLEAR     54  36  50 S9        29.76F
$$

AZZ004>008-015-016-018-070900-
NORTH CENTRAL ARIZONA

CITY           SKY/WX    TMP DP  RH WIND       PRES   REMARKS
GRAND CANYON   PTCLDY    30  24  78 NE3       29.91F
WILLIAMS       PTCLDY    43  27  52 CALM      29.97F
PRESCOTT       CLEAR     48  30  49 S6        29.88S
FLAGSTAFF      NOT AVBL
PAYSON         CLEAR     55  32  41 VRB6G16   29.92F
PAGE           PTCLDY    60  32  34 S7        29.79S
$$

AZZ009>014-017-070900-
NORTHEAST ARIZONA

CITY           SKY/WX    TMP DP  RH WIND       PRES   REMARKS
WINSLOW        NOT AVBL
SAINT JOHNS    CLEAR     46  29  51 S7        29.92S
WINDOW ROCK    CLEAR     45  25  45 SW5       29.95S
$$

AZZ023-070900-
GREATER PHOENIX AREA

CITY           SKY/WX    TMP DP  RH WIND       PRES   REMARKS
PHOENIX        CLEAR     70  40  33 S8        29.76R
DEER VALLEY    CLEAR     67  33  28 S5        29.77S
SCOTTSDALE     CLEAR     68  36  30 S3        29.79S
$$

AZZ027-028-070900-
SOUTHWEST MARICOPA COUNTY AND PINAL COUNTY

CITY           SKY/WX    TMP DP  RH WIND       PRES   REMARKS
CASA GRANDE    CLEAR     66  37  34 S9        29.78F
GILA BEND      FAIR      65  39  38 S7        29.75S
$$

AZZ503-504-507>509-070900-
SOUTHEAST ARIZONA

CITY           SKY/WX    TMP DP  RH WIND       PRES   REMARKS
TUCSON         CLEAR     67  33  28 S8        29.85S
NOGALES        CLEAR     60  36  40 S9        29.90S
SIERRA VISTA   CLEAR     60  39  46 VRB1      29.92F
SAFFORD        CLEAR     65  37  35 W3        29.83R
$$

AZZ020-021-025-026-031-070900-
SOUTHWEST ARIZONA

CITY           SKY/WX    TMP DP  RH WIND       PRES   REMARKS
YUMA           CLEAR     68  44  42 CALM      29.74F
$$

CAZ031-033-041-043-047-048-061-070900-
SOUTHERN CALIFORNIA

CITY           SKY/WX    TMP DP  RH WIND       PRES   REMARKS
DOWNTOWN L.A.  CLOUDY    59  48  67 CALM      29.87F
L.A. AIRPORT   MOCLDY    57  50  77 W9        29.88S
SAN DIEGO      MOCLDY    62  47  57 SW9       29.91F
BURBANK        CLOUDY    58  46  64 SE6       29.87S
ONTARIO        MOCLDY    57  47  69 W9        29.87S
RIVERSIDE      CLOUDY    57  48  72 W7        29.88R
PALM SPRINGS   CLEAR     69  40  34 VRB7      29.71R
EL CENTRO NAS  CLEAR     65  43  44 W20       29.75R
IMPERIAL       CLEAR     63  45  51 W12       29.73R
BLYTHE         CLEAR     67  48  50 S14       29.71R
$$

NVZ020-UTZ003-070900-
SOUTHERN NEVADA-UTAH

CITY           SKY/WX    TMP DP  RH WIND       PRES   REMARKS
LAS VEGAS      NOT AVBL
SALT LAKE CITY CLOUDY    49  46  90 SE9       29.80F
$$

NMZ009-TXZ055-070900-
NEW MEXICO-WEST TEXAS

CITY           SKY/WX    TMP DP  RH WIND       PRES   REMARKS
ALBUQUERQUE    PTCLDY    54  45  71 CALM      29.91S
EL PASO        PTCLDY    72  23  16 W16G22    29.85R
$$


........................KEY........................
SKY/WX - SKY CONDITION/WEATHER
TMP    - TEMPERATURE IN FAHRENHEIT
DP     - DEW POINT IN FAHRENHEIT
RH     - RELATIVE HUMIDITY IN PERCENT
WIND   - DIRECTION AND SPEED IN MILES PER HOUR (MPH)
VRB    - VARIABLE WIND DIRECTION
PRES   - MEAN SEA LEVEL PRESSURE IN INCHES OF MERCURY
         F - FALLING PRESSURE   R - RISING PRESSURE
         S - STEADY PRESSURE
VSB    - VISIBILITY IN MILES
HX     - HEAT INDEX IN FAHRENHEIT
WCI    - WIND CHILL INDEX IN FAHRENHEIT
TC     - TEMPERATURE IN CELSIUS WHICH IS ALSO KNOWN AS
         TEMPERATURE IN CENTIGRADE
AFB    - AIR FORCE BASE
         LUKE AFB IS LUKE AIR FORCE BASE
         DAVIS-MONTHAN IS DAVIS-MONTHAN AIR FORCE BASE
NAS    - NAVAL AIR STATION
         EL CENTRO NAS IS EL CENTRO NAVAL AIR STATION
N/A    - NOT AVAILABLE




USA.gov is the U.S. government's official web portal to all federal, state and local government web resources and services.